Weather History for Storm Lake, IA

Change the Weather History Date:

Saturday, January 21, 2012

  Actual Average Record
Temperature  
Mean Temperature 5 °F -  
Max Temperature 19 °F 26 °F 50 °F (2002)
Min Temperature -9 °F 10 °F -13 °F (2014)
Degree Days  
Heating Degree Days 60    
Moisture  
Dew Point 2 °F    
Average Humidity 89    
Maximum Humidity 96    
Minimum Humidity 82    
Precipitation  
Precipitation 0.00 in - - ()
Sea Level Pressure  
Sea Level Pressure 30.02 in    
Wind  
Wind Speed 7 mph (SSE)    
Max Wind Speed 31 mph    
Max Gust Speed 36 mph    
Visibility 5 miles    
Events      
Averages and records for this station are not official NWS values.
T = Trace of Precipitation, MM = Missing Value Source: NWS Daily Summary

Daily Weather History Graph

Daily Weather History Graph

Search for Another Location

Airport:

Trip Planner

Search our weather history database for the weather conditions in past years. The results will help you decide how hot, cold, wet, or windy it might be!

Date:

Astronomy

Jan. 21, 2012 Rise Set
Actual Time 7:45 AM CST 5:19 PM CST
Civil Twilight 7:14 AM CST 5:50 PM CST
Nautical Twilight 6:39 AM CST 6:25 PM CST
Astronomical Twilight 6:06 AM CST 6:58 PM CST
Moon 6:17 AM CST (1/21) 3:56 PM CST (1/21)
Length of Visible Light 10h 36m
Length of Day
9h 34m
Waning Crescent, 3% of the Moon is Illuminated
Jan 21
Waning Crescent
Jan 23
New
Jan 30
First Quarter
Feb 7
Full
Feb 14
Last Quarter

Hourly Weather History & Observations

Time (CST) Temp. Windchill Dew Point Humidity Pressure Visibility Wind Dir Wind Speed Gust Speed Precip Events Conditions
12:15 AM -6.5 °F - -9.6 °F 87% 30.16 in 0.8 mi Calm Calm - N/A   Overcast
12:35 AM -4.2 °F -14.8 °F -7.2 °F 87% 30.17 in 10.0 mi ENE 4.6 mph - N/A   Scattered Clouds
12:55 AM -4.5 °F -15.2 °F -8.0 °F 85% 30.18 in 10.0 mi NNE 4.6 mph - N/A   Clear
1:15 AM -7.1 °F -19.9 °F -10.8 °F 84% 30.18 in 7.0 mi NNE 5.8 mph - N/A   Clear
1:35 AM -6.7 °F -15.5 °F -10.3 °F 84% 30.18 in 10.0 mi NNE 3.5 mph - N/A   Clear
1:55 AM -4.5 °F -15.2 °F -7.6 °F 87% 30.17 in 10.0 mi NE 4.6 mph - N/A   Clear
2:15 AM -5.8 °F - -9.2 °F 85% 30.18 in 10.0 mi Calm Calm - N/A   Clear
2:35 AM -6.5 °F - -10.1 °F 84% 30.16 in 10.0 mi Calm Calm - N/A   Clear
2:55 AM -4.9 °F - -8.0 °F 87% 30.16 in 10.0 mi Calm Calm - N/A   Clear
3:15 AM -3.6 °F - -6.5 °F 87% 30.16 in 10.0 mi Calm Calm - N/A   Clear
3:35 AM -4.2 °F - -7.2 °F 87% 30.15 in 10.0 mi Calm Calm - N/A   Clear
3:55 AM -4.5 °F - -8.1 °F 84% 30.15 in 10.0 mi Calm Calm - N/A   Clear
4:15 AM -6.3 °F - -9.9 °F 84% 30.13 in 7.0 mi Calm Calm - N/A   Clear
4:35 AM -7.4 °F - -11.0 °F 84% 30.14 in 10.0 mi Calm Calm - N/A   Clear
4:55 AM -6.2 °F - -9.6 °F 85% 30.14 in 5.0 mi Calm Calm - N/A   Clear
5:15 AM -5.6 °F - -9.0 °F 85% 30.14 in 5.0 mi Calm Calm - N/A   Clear
5:35 AM -4.4 °F - -7.8 °F 85% 30.14 in 4.0 mi Calm Calm - N/A   Clear
5:55 AM -5.8 °F - -9.4 °F 84% 30.14 in 0.5 mi Calm Calm - N/A   Mostly Cloudy
6:15 AM -7.2 °F -16.1 °F -11.2 °F 83% 30.12 in 0.2 mi ESE 3.5 mph - N/A   Mostly Cloudy
6:35 AM -8.7 °F -17.8 °F -12.8 °F 82% 30.10 in 5.0 mi SE 3.5 mph - N/A   Clear
6:55 AM -9.0 °F -22.3 °F -13.2 °F 82% 30.10 in 1.2 mi SE 5.8 mph - N/A   Mostly Cloudy
7:15 AM -8.3 °F -23.0 °F -12.1 °F 84% 30.10 in 2.0 mi SE 6.9 mph - N/A   Overcast
7:35 AM -8.7 °F -20.0 °F -12.6 °F 83% 30.11 in 2.5 mi SE 4.6 mph - N/A   Overcast
7:55 AM -8.3 °F -23.0 °F -12.1 °F 84% 30.10 in 7.0 mi SE 6.9 mph - N/A   Scattered Clouds
8:15 AM -4.7 °F -17.2 °F -8.1 °F 85% 30.11 in 10.0 mi SSE 5.8 mph - N/A   Overcast
8:35 AM -2.7 °F -13.1 °F -5.8 °F 87% 30.11 in 10.0 mi SSE 4.6 mph - N/A   Overcast
8:55 AM -1.3 °F -11.4 °F -4.4 °F 87% 30.11 in 7.0 mi SSE 4.6 mph - N/A   Overcast
9:15 AM 0.1 °F -12.8 °F -2.7 °F 88% 30.11 in 5.0 mi SSE 6.9 mph - N/A   Overcast
9:35 AM 1.4 °F -11.3 °F -1.5 °F 88% 30.11 in 4.0 mi SSE 6.9 mph - N/A   Overcast
9:55 AM 2.3 °F -10.2 °F -0.4 °F 88% 30.11 in 2.5 mi SSE 6.9 mph - N/A   Overcast
10:15 AM 3.7 °F -8.4 °F 1.2 °F 89% 30.10 in 4.0 mi SSE 6.9 mph - N/A   Overcast
10:35 AM 5.0 °F -5.6 °F 2.3 °F 89% 30.09 in 7.0 mi SSE 5.8 mph - N/A   Overcast
10:55 AM 5.9 °F -7.0 °F 3.4 °F 89% 30.08 in 7.0 mi SSE 8.1 mph - N/A   Overcast
11:15 AM 6.4 °F -6.3 °F 3.9 °F 89% 30.07 in 4.0 mi SSE 8.1 mph - N/A   Overcast
11:35 AM 6.8 °F -5.9 °F 4.5 °F 90% 30.06 in 3.0 mi SSE 8.1 mph - N/A   Overcast
11:55 AM 8.1 °F -7.7 °F 5.9 °F 91% 30.05 in 3.0 mi SSE 12.7 mph - N/A   Overcast
12:15 PM 9.0 °F -9.0 °F 6.8 °F 91% 30.02 in 5.0 mi SSE 17.3 mph - N/A   Overcast
12:35 PM 10.0 °F -8.1 °F 7.9 °F 91% 30.01 in 4.0 mi SSE 18.4 mph - N/A   Overcast
12:55 PM 10.4 °F -8.2 °F 8.6 °F 92% 29.99 in 5.0 mi SSE 19.6 mph - N/A   Overcast
1:15 PM 12.2 °F -4.8 °F 10.4 °F 92% 29.97 in 5.0 mi SE 17.3 mph 23.0 mph N/A   Overcast
1:35 PM 13.3 °F -3.9 °F 11.8 °F 94% 29.95 in 5.0 mi SSE 18.4 mph - N/A   Overcast
1:55 PM 14.4 °F -3.8 °F 12.9 °F 94% 29.94 in 5.0 mi SSE 21.9 mph - N/A   Overcast
2:15 PM 14.7 °F -2.5 °F 13.3 °F 94% 29.92 in 4.0 mi SSE 19.6 mph - N/A   Overcast
2:55 PM 15.8 °F -0.6 °F 14.5 °F 95% 29.90 in 4.0 mi SSE 18.4 mph 24.2 mph N/A   Overcast
3:15 PM 16.0 °F -0.4 °F 14.9 °F 95% 29.90 in 4.0 mi SSE 18.4 mph 23.0 mph N/A   Overcast
3:35 PM 16.5 °F -0.6 °F 15.3 °F 95% 29.88 in 3.0 mi SSE 20.7 mph 28.8 mph N/A   Overcast
4:15 PM 16.9 °F 0.8 °F 15.8 °F 96% 29.87 in 5.0 mi SSE 18.4 mph - N/A   Overcast
4:35 PM 17.6 °F 1.3 °F 16.5 °F 96% 29.86 in 5.0 mi SSE 19.6 mph 23.0 mph N/A   Overcast
4:55 PM 18.1 °F 1.2 °F 17.2 °F 96% 29.85 in 3.0 mi South 21.9 mph 31.1 mph N/A   Overcast
5:15 PM 18.5 °F 1.6 °F 17.6 °F 96% 29.84 in 3.0 mi South 21.9 mph 27.6 mph N/A   Overcast
5:35 PM 18.9 °F 1.0 °F 18.0 °F 96% 29.83 in 2.5 mi SSE 25.3 mph 33.4 mph N/A   Overcast
5:55 PM 18.9 °F 1.7 °F 18.0 °F 96% 29.82 in 4.0 mi SSE 23.0 mph 31.1 mph N/A   Overcast
6:15 PM 19.0 °F 1.3 °F 18.1 °F 96% 29.81 in 2.5 mi SSE 25.3 mph 31.1 mph N/A   Overcast
6:35 PM 19.2 °F 1.2 °F 18.3 °F 96% 29.79 in 2.5 mi SSE 26.5 mph 34.5 mph N/A   Overcast
6:55 PM 19.4 °F 2.1 °F 18.5 °F 96% 29.79 in 2.5 mi SSE 24.2 mph 33.4 mph N/A   Overcast
7:15 PM 19.4 °F 0.8 °F 18.5 °F 96% 29.77 in 2.5 mi SSE 28.8 mph 33.4 mph N/A   Overcast
7:35 PM 19.4 °F 1.8 °F 18.5 °F 96% 29.77 in 2.5 mi SSE 25.3 mph 33.4 mph N/A   Overcast
7:55 PM 19.6 °F 0.5 °F 18.7 °F 96% 29.77 in 2.5 mi SSE 31.1 mph 35.7 mph N/A   Overcast
8:15 PM 19.8 °F 1.6 °F 18.9 °F 96% 29.75 in 2.5 mi SSE 27.6 mph 34.5 mph N/A   Overcast
8:35 PM 19.9 °F 3.5 °F 19.0 °F 96% 29.75 in 3.0 mi SSE 21.9 mph 31.1 mph N/A   Overcast
8:55 PM 20.1 °F 2.1 °F 19.2 °F 96% 29.74 in 3.0 mi SSE 27.6 mph 32.2 mph N/A   Overcast
9:15 PM 20.1 °F 2.4 °F 19.2 °F 96% 29.73 in 3.0 mi SSE 26.5 mph 33.4 mph N/A   Overcast
9:35 PM 20.3 °F 3.7 °F 19.4 °F 96% 29.72 in 4.0 mi SSE 23.0 mph 31.1 mph N/A   Overcast
9:55 PM 20.3 °F 2.3 °F 19.4 °F 96% 29.70 in 3.0 mi SSE 27.6 mph 31.1 mph N/A   Overcast
10:15 PM 20.8 °F 3.7 °F 19.9 °F 96% 29.70 in 3.0 mi SSE 25.3 mph 31.1 mph N/A   Overcast
10:35 PM 21.0 °F 4.3 °F 20.1 °F 96% 29.67 in 3.0 mi SSE 24.2 mph 31.1 mph N/A   Overcast
10:55 PM 21.2 °F 4.2 °F 20.3 °F 96% 29.67 in 3.0 mi SSE 25.3 mph 32.2 mph N/A   Overcast
11:15 PM 21.6 °F 4.7 °F 20.5 °F 96% 29.67 in 4.0 mi SSE 25.3 mph 29.9 mph N/A   Overcast
11:35 PM 21.6 °F 4.0 °F 20.7 °F 96% 29.65 in 2.5 mi SSE 27.6 mph 34.5 mph N/A   Overcast
11:55 PM 21.6 °F 5.7 °F 20.7 °F 96% 29.65 in 3.0 mi SSE 21.9 mph 27.6 mph N/A   Overcast